sat.trackr.live / text

‹ back to catalog

USA 170

NORAD 27875 · 2003-040A

PAYLOAD ACTIVE UNKNOWN

§ Identity

Operator
Country
US
Launch date
2003-08-29
Launch site
AFETR
Launch vehicle
Mass (kg)
RCS (m²)

Purposes: comms

External: N2YO · Heavens-Above · Gunter

§ Orbital elements

Epoch: 2026-09-19T17:33:48.121344Z

Period
1,436.08 min
Inclination
10.6966°
Eccentricity
0.0001624
Mean motion
1.00272734 rev/d
Perigee alt
35,779.5 km
Apogee alt
35,793.2 km
Semi-major
42,164.5 km
B*
0.0000e+0
RAAN
47.0219°
Arg perigee
161.2423°
Mean anomaly
77.9227°
Rev number
3,394

§ Raw data

USA 1701 27875U 03040A   26262.73180696  .00000125  00000+0  00000+0 0  99902 27875  10.6966  47.0219 0001624 161.2423  77.9227  1.00272734 33943

JSON: /api/v1/satellites/27875 · /tle

For live sub-satellite position, see the globe view (requires WebGL).

§ Visibility from observer

Set your observer location to see the next 7 days of passes ≥ 10°. The values pass through the URL so the page stays shareable.

No JS? Fill the form by hand. The geolocation button needs JavaScript.